Weather in Novodnestrovsk

Ukraine / Chernovtci District     48°34′41″N   27°26′30″E
temp.,
°C
wind,
m/s
gust,
m/s
humid.,
%
clouds,
%
prec.,
mm/h
press.,
hPa
HPBL,
m
5 august, thu
thu500:00+18nne229043 3.4 101534
03:00+17ese2292100 3.9 101430
06:00+17se2294100 0.0 101332
09:00+20se34816 0.0 1012337
12:00+26sse5561100 0.0 1011845
15:00+29s684714 0.0 10081687
18:00+29se695435 0.0 10061421
21:00+26se6165795 0.0 1003606
6 august, fri
fri600:00+20sse41491100 7.6 1006822
03:00+18sse41191100 8.1 1004340
06:00+18s2594100 0.6 1003143
09:00+22ssw228012 0.6 1003370
12:00+25nw2166100 1.3 1004935
15:00+27wnw2253100 1.4 10031585
18:00+25nw556150 0.2 1003619
21:00+18sw4691100 3.0 1006179
7 august, sat
sat700:00+17nw4109162 0.0 1008371
03:00+15nw4993100 0.0 1009402
06:00+13nw499623 0.0 1011333
09:00+15nw5785100 0.0 1013560
12:00+21nnw56575 0.0 10131154
15:00+23nw56440 0.0 10121349
18:00+24nnw34460 0.0 10131362
21:00+19ene22620 0.0 101411
8 august, sun
sun800:00+17n11659 0.0 101511
03:00+16e11670 0.0 101611
06:00+15ese11695 0.0 101611
09:00+20ese22581 0.0 1016265
12:00+24se33495 0.0 1016853
15:00+27sse334488 0.0 10161237
18:00+27sse23454 0.0 10151097
21:00+21ese22610 0.0 101612
9 august, mon
mon900:00+20ese22615 0.0 101719
03:00+18se22636 0.0 101621
06:00+18se226357 0.0 101631
09:00+22sw2356100 0.0 1017302
12:00+26wnw344887 0.0 1018856
15:00+28nw334899 0.0 10171380
18:00+26nnw44585 0.0 10171066
21:00+22nnw3674100 0.0 1018120